Location: Anumalkud?ru
(16.4847°N, 80.6636°E)
Time: 15:39:57
(UTC+00:00)

Cosmos 1777 Rocket - Pass Details

Date: 11 April 2026
Orbit: 753 x 771 km, 74.0° (Epoch: 11 May)

Event Time Altitude Azimuth Distance (km) Brightness Sun altitude
Rises 23:23:18 0° 346° (NNW) 3,232 7.2 -15.2°
Reaches altitude 10° 23:25:41 10° 346° (NNW) 2,303 6.5 -14.7°
Maximum altitude 23:30:55 89° 261° (W) 768 4.0 -13.4°
Drops below altitude 10° 23:36:07 10° 168° (SSE) 2,288 6.5 -12.2°
Sets 23:38:28 0° 168° (SSE) 3,209 7.2 -11.7°
